Time,TemperatureF,DewpointF,PressureIn,WindDirection,WindDirectionDegrees,WindSpeedMPH,WindSpeedGustMPH,Humidity,HourlyPrecipIn,Conditions,Clouds,dailyrainin,SoftwareType,DateUTC
2013-06-06 00:00:00,51.0,47.0,-100.00,North,-999,-999.0,-999.0,86,-99.99,,,0.00,,2013-06-06 07:00:00,
2013-06-06 00:52:00,51.0,47.0,-100.00,North,-999,-999.0,-999.0,86,-99.99,,,0.00,,2013-06-06 07:52:00,
2013-06-06 01:00:00,51.0,48.0,-100.00,ENE,57,1.0,2.0,91,-99.99,,,0.00,,2013-06-06 08:00:00,
2013-06-06 01:52:00,51.0,48.0,-100.00,ENE,57,1.0,2.0,91,-99.99,,,0.00,,2013-06-06 08:52:00,
2013-06-06 02:00:00,50.0,47.0,-100.00,ENE,65,1.0,2.0,89,-99.99,,,0.00,,2013-06-06 09:00:00,
2013-06-06 02:53:00,50.0,47.0,-100.00,ENE,65,1.0,2.0,89,-99.99,,,0.00,,2013-06-06 09:53:00,
2013-06-06 03:00:00,50.0,45.0,-100.00,NE,50,2.0,3.0,82,-99.99,,,0.00,,2013-06-06 10:00:00,
2013-06-06 03:53:00,50.0,45.0,-100.00,NE,50,2.0,3.0,82,-99.99,,,0.00,,2013-06-06 10:53:00,
2013-06-06 04:00:00,49.0,45.0,-100.00,ENE,72,2.0,3.0,85,-99.99,,,0.00,,2013-06-06 11:00:00,
2013-06-06 04:52:00,49.0,45.0,-100.00,ENE,72,2.0,3.0,85,-99.99,,,0.00,,2013-06-06 11:52:00,
2013-06-06 05:00:00,49.0,46.0,-100.00,ENE,78,1.0,3.0,89,-99.99,,,0.00,,2013-06-06 12:00:00,
2013-06-06 05:53:00,49.0,46.0,-100.00,ENE,78,1.0,3.0,89,-99.99,,,0.00,,2013-06-06 12:53:00,
2013-06-06 06:00:00,50.0,46.0,-100.00,ENE,68,2.0,3.0,88,-99.99,,,0.00,,2013-06-06 13:00:00,
2013-06-06 06:53:00,50.0,46.0,-100.00,ENE,68,2.0,3.0,88,-99.99,,,0.00,,2013-06-06 13:53:00,
2013-06-06 07:00:00,51.0,46.0,-100.00,North,-999,-999.0,-999.0,83,-99.99,,,0.01,,2013-06-06 14:00:00,
2013-06-06 08:00:00,53.0,44.0,-100.00,NNE,32,2.0,3.0,72,-99.99,,,0.00,,2013-06-06 15:00:00,
2013-06-06 09:00:00,56.0,46.0,-100.00,NNE,22,2.0,3.0,69,-99.99,,,0.01,,2013-06-06 16:00:00,
2013-06-06 09:53:00,56.0,46.0,-100.00,NNE,22,2.0,3.0,69,-99.99,,,0.01,,2013-06-06 16:53:00,
2013-06-06 10:00:00,58.0,45.0,-100.00,NE,49,2.0,4.0,61,-99.99,,,0.01,,2013-06-06 17:00:00,
2013-06-06 10:53:00,58.0,45.0,-100.00,NE,49,2.0,4.0,61,-99.99,,,0.01,,2013-06-06 17:53:00,
2013-06-06 11:00:00,58.0,47.0,-100.00,NNW,346,3.0,5.0,66,-99.99,,,0.01,,2013-06-06 18:00:00,
2013-06-06 11:53:00,58.0,47.0,-100.00,NNW,346,3.0,5.0,66,-99.99,,,0.01,,2013-06-06 18:53:00,
2013-06-06 12:00:00,58.0,49.0,-100.00,East,98,3.0,5.0,70,-99.99,,,0.00,,2013-06-06 19:00:00,
2013-06-06 12:53:00,58.0,49.0,-100.00,East,98,3.0,5.0,70,-99.99,,,0.00,,2013-06-06 19:53:00,
2013-06-06 13:00:00,58.0,48.0,-100.00,NNW,348,3.0,5.0,69,-99.99,,,0.01,,2013-06-06 20:00:00,
2013-06-06 13:53:00,58.0,48.0,-100.00,NNW,348,3.0,5.0,69,-99.99,,,0.01,,2013-06-06 20:53:00,
2013-06-06 14:00:00,62.0,49.0,-100.00,NE,37,2.0,4.0,64,-99.99,,,0.00,,2013-06-06 21:00:00,
2013-06-06 14:53:00,62.0,49.0,-100.00,NE,37,2.0,4.0,64,-99.99,,,0.00,,2013-06-06 21:53:00,
2013-06-06 15:00:00,61.0,49.0,-100.00,NNW,338,2.0,5.0,65,-99.99,,,-99.99,,2013-06-06 22:00:00,
2013-06-06 15:43:00,61.0,49.0,-100.00,NNW,338,2.0,5.0,65,-99.99,,,-99.99,,2013-06-06 22:43:00,
2013-06-06 15:53:00,61.0,49.0,-100.00,NNW,338,2.0,5.0,65,-99.99,,,-99.99,,2013-06-06 22:53:00,
2013-06-06 16:00:00,60.0,49.0,-100.00,North,353,2.0,4.0,66,-99.99,,,0.00,,2013-06-06 23:00:00,
2013-06-06 16:52:00,60.0,49.0,-100.00,North,353,2.0,4.0,66,-99.99,,,0.00,,2013-06-06 23:52:00,
2013-06-06 17:00:00,60.0,48.0,-100.00,North,351,2.0,5.0,65,-99.99,,,0.00,,2013-06-07 00:00:00,
2013-06-06 17:52:00,60.0,48.0,-100.00,North,351,2.0,5.0,65,-99.99,,,0.00,,2013-06-07 00:52:00,
2013-06-06 18:00:00,58.0,46.0,-100.00,SE,143,2.0,4.0,64,-99.99,,,0.00,,2013-06-07 01:00:00,
2013-06-06 18:52:00,58.0,46.0,-100.00,SE,143,2.0,4.0,64,-99.99,,,0.00,,2013-06-07 01:52:00,
2013-06-06 19:00:00,56.0,46.0,-100.00,North,10,1.0,3.0,68,-99.99,,,0.00,,2013-06-07 02:00:00,
2013-06-06 19:52:00,56.0,46.0,-100.00,North,10,1.0,3.0,68,-99.99,,,0.00,,2013-06-07 02:52:00,
2013-06-06 20:00:00,55.0,47.0,-100.00,NNE,22,0.0,2.0,73,-99.99,,,0.00,,2013-06-07 03:00:00,
2013-06-06 20:44:00,55.0,47.0,-100.00,NNE,22,0.0,2.0,73,-99.99,,,0.00,,2013-06-07 03:44:00,
2013-06-06 20:53:00,55.0,47.0,-100.00,NNE,22,0.0,2.0,73,-99.99,,,0.00,,2013-06-07 03:53:00,
2013-06-06 21:00:00,53.0,46.0,-100.00,NW,315,0.0,1.0,79,-99.99,,,0.00,,2013-06-07 04:00:00,
2013-06-06 21:53:00,53.0,46.0,-100.00,NW,315,0.0,1.0,79,-99.99,,,0.00,,2013-06-07 04:53:00,
2013-06-06 22:00:00,50.0,45.0,-100.00,NE,39,0.0,2.0,82,-99.99,,,0.00,,2013-06-07 05:00:00,
2013-06-06 22:52:00,50.0,45.0,-100.00,NE,39,0.0,2.0,82,-99.99,,,0.00,,2013-06-07 05:52:00,
2013-06-06 23:00:00,50.0,45.0,-100.00,South,187,0.0,1.0,83,-99.99,,,0.00,,2013-06-07 06:00:00,
2013-06-06 23:52:00,50.0,45.0,-100.00,South,187,0.0,1.0,83,-99.99,,,0.00,,2013-06-07 06:52:00,